Time,TemperatureF,DewpointF,PressureIn,WindDirection,WindDirectionDegrees,WindSpeedMPH,WindSpeedGustMPH,Humidity,HourlyPrecipIn,Conditions,Clouds,dailyrainin,SoftwareType,DateUTC
2013-06-20 00:01:00,61.4,49.2,29.62,SSW,203,2.5,3.4,64,0.00,,,0.00,WUHU216HW,2013-06-20 05:01:00,
2013-06-20 00:06:00,61.2,49.4,29.62,SW,225,2.7,3.4,65,0.00,,,0.00,WUHU216HW,2013-06-20 05:06:00,
2013-06-20 00:11:00,61.0,49.2,29.62,SSW,203,2.7,2.7,65,0.00,,,0.00,WUHU216HW,2013-06-20 05:11:00,
2013-06-20 00:16:00,61.0,49.2,29.62,SSW,203,2.2,2.7,65,0.00,,,0.00,WUHU216HW,2013-06-20 05:16:00,
2013-06-20 00:21:00,60.8,49.1,29.62,SSW,203,1.1,2.7,65,0.00,,,0.00,WUHU216HW,2013-06-20 05:21:00,
2013-06-20 00:26:00,60.8,49.1,29.62,SSW,203,1.6,2.2,65,0.00,,,0.00,WUHU216HW,2013-06-20 05:26:00,
2013-06-20 00:31:00,60.8,49.1,29.62,SSW,203,0.9,1.6,65,0.00,,,0.00,WUHU216HW,2013-06-20 05:31:00,
2013-06-20 00:36:00,60.7,48.9,29.63,SSW,203,0.7,1.6,65,0.00,,,0.00,WUHU216HW,2013-06-20 05:36:00,
2013-06-20 00:41:00,60.7,48.9,29.62,SSW,203,0.7,0.9,65,0.00,,,0.00,WUHU216HW,2013-06-20 05:41:00,
2013-06-20 00:46:00,60.5,48.7,29.62,SSW,203,1.1,1.1,65,0.00,,,0.00,WUHU216HW,2013-06-20 05:46:00,
2013-06-20 00:51:00,59.9,48.2,29.63,SSW,203,1.6,1.6,65,0.00,,,0.00,WUHU216HW,2013-06-20 05:51:00,
2013-06-20 00:56:00,59.9,48.6,29.63,SSW,203,1.1,1.6,66,0.00,,,0.00,WUHU216HW,2013-06-20 05:56:00,
2013-06-20 01:01:00,59.8,48.4,29.63,SSW,203,1.6,1.6,66,0.00,,,0.00,WUHU216HW,2013-06-20 06:01:00,
2013-06-20 01:06:00,59.8,48.4,29.63,SSW,203,1.3,1.6,66,0.00,,,0.00,WUHU216HW,2013-06-20 06:06:00,
2013-06-20 01:11:00,59.8,48.4,29.62,SSW,203,1.3,1.6,66,0.00,,,0.00,WUHU216HW,2013-06-20 06:11:00,
2013-06-20 01:16:00,59.6,48.6,29.62,SSW,203,1.1,1.3,67,0.00,,,0.00,WUHU216HW,2013-06-20 06:16:00,
2013-06-20 01:21:00,59.2,48.7,29.63,SSW,203,2.2,2.2,68,0.00,,,0.00,WUHU216HW,2013-06-20 06:21:00,
2013-06-20 01:26:00,58.9,48.7,29.63,SSW,203,2.0,2.2,69,0.00,,,0.00,WUHU216HW,2013-06-20 06:26:00,
2013-06-20 01:31:00,58.7,49.0,29.63,SSW,203,2.5,2.5,70,0.00,,,0.00,WUHU216HW,2013-06-20 06:31:00,
2013-06-20 01:36:00,58.5,48.3,29.63,SSW,203,2.2,2.5,69,0.00,,,0.00,WUHU216HW,2013-06-20 06:36:00,
2013-06-20 01:41:00,58.5,48.3,29.63,SSW,203,2.5,2.7,69,0.00,,,0.00,WUHU216HW,2013-06-20 06:41:00,
2013-06-20 01:46:00,58.5,48.3,29.63,South,180,2.0,2.7,69,0.00,,,0.00,WUHU216HW,2013-06-20 06:46:00,
2013-06-20 01:51:00,58.5,48.3,29.63,SSW,203,1.1,2.5,69,0.00,,,0.00,WUHU216HW,2013-06-20 06:51:00,
2013-06-20 01:56:00,58.7,48.2,29.63,SSE,158,1.1,2.0,68,0.00,,,0.00,WUHU216HW,2013-06-20 06:56:00,
2013-06-20 02:01:00,58.7,48.2,29.63,SSW,203,1.8,1.8,68,0.00,,,0.00,WUHU216HW,2013-06-20 07:01:00,
2013-06-20 02:06:00,58.7,48.2,29.63,SSW,203,1.3,1.8,68,0.00,,,0.00,WUHU216HW,2013-06-20 07:06:00,
2013-06-20 02:11:00,58.3,48.2,29.63,SSW,203,2.5,2.5,69,0.00,,,0.00,WUHU216HW,2013-06-20 07:11:00,
2013-06-20 02:16:00,58.1,48.0,29.63,SSW,203,2.2,2.5,69,0.00,,,0.00,WUHU216HW,2013-06-20 07:16:00,
2013-06-20 02:21:00,58.0,47.9,29.63,SSW,203,2.7,2.7,69,0.00,,,0.00,WUHU216HW,2013-06-20 07:21:00,
2013-06-20 02:26:00,58.0,47.9,29.63,SSW,203,2.7,2.7,69,0.00,,,0.00,WUHU216HW,2013-06-20 07:26:00,
2013-06-20 02:31:00,58.1,47.6,29.63,SSW,203,1.3,2.7,68,0.00,,,0.00,WUHU216HW,2013-06-20 07:31:00,
2013-06-20 02:36:00,58.1,47.6,29.63,SSW,203,1.6,2.7,68,0.00,,,0.00,WUHU216HW,2013-06-20 07:36:00,
2013-06-20 02:41:00,58.1,47.6,29.63,SSW,203,1.8,1.8,68,0.00,,,0.00,WUHU216HW,2013-06-20 07:41:00,
2013-06-20 02:46:00,58.1,47.6,29.63,SSW,203,1.6,1.8,68,0.00,,,0.00,WUHU216HW,2013-06-20 07:46:00,
2013-06-20 02:51:00,58.0,47.4,29.63,SSW,203,1.8,1.8,68,0.00,,,0.00,WUHU216HW,2013-06-20 07:51:00,
2013-06-20 02:56:00,58.0,47.4,29.63,South,180,1.6,1.8,68,0.00,,,0.00,WUHU216HW,2013-06-20 07:56:00,
2013-06-20 03:01:00,58.0,47.4,29.63,SSW,203,2.2,2.2,68,0.00,,,0.00,WUHU216HW,2013-06-20 08:01:00,
2013-06-20 03:06:00,58.0,47.9,29.63,SSW,203,1.3,2.2,69,0.00,,,0.00,WUHU216HW,2013-06-20 08:06:00,
2013-06-20 03:11:00,57.8,47.7,29.63,SSW,203,1.6,2.2,69,0.00,,,0.00,WUHU216HW,2013-06-20 08:11:00,
2013-06-20 03:16:00,57.8,47.3,29.63,SSW,203,1.1,1.6,68,0.00,,,0.00,WUHU216HW,2013-06-20 08:16:00,
2013-06-20 03:21:00,57.8,47.3,29.63,SSW,203,1.8,1.8,68,0.00,,,0.00,WUHU216HW,2013-06-20 08:21:00,
2013-06-20 03:26:00,57.6,47.5,29.63,SW,225,1.1,2.7,69,0.00,,,0.00,WUHU216HW,2013-06-20 08:26:00,
2013-06-20 03:31:00,57.4,47.4,29.63,SSW,203,2.0,2.7,69,0.00,,,0.00,WUHU216HW,2013-06-20 08:31:00,
2013-06-20 03:36:00,57.6,47.1,29.63,SSW,203,2.2,2.2,68,0.00,,,0.00,WUHU216HW,2013-06-20 08:36:00,
2013-06-20 03:41:00,57.4,46.9,29.63,SSW,203,2.7,2.7,68,0.00,,,0.00,WUHU216HW,2013-06-20 08:41:00,
2013-06-20 03:46:00,57.4,46.9,29.63,SSW,203,0.9,2.7,68,0.00,,,0.00,WUHU216HW,2013-06-20 08:46:00,
2013-06-20 03:51:00,57.4,46.9,29.63,SSW,203,0.7,2.7,68,0.00,,,0.00,WUHU216HW,2013-06-20 08:51:00,
2013-06-20 03:56:00,57.4,46.9,29.63,SSW,203,0.4,0.9,68,0.00,,,0.00,WUHU216HW,2013-06-20 08:56:00,
2013-06-20 04:01:00,57.2,47.2,29.63,SSW,203,0.7,0.9,69,0.00,,,0.00,WUHU216HW,2013-06-20 09:01:00,
2013-06-20 04:06:00,57.2,47.2,29.63,SSW,203,0.7,0.9,69,0.00,,,0.00,WUHU216HW,2013-06-20 09:06:00,
2013-06-20 04:11:00,57.2,47.2,29.63,SSW,203,0.4,0.7,69,0.00,,,0.00,WUHU216HW,2013-06-20 09:11:00,
2013-06-20 04:16:00,57.2,47.2,29.63,SSW,203,0.4,0.7,69,0.00,,,0.00,WUHU216HW,2013-06-20 09:16:00,
2013-06-20 04:21:00,57.1,47.0,29.63,SSW,203,0.7,0.7,69,0.00,,,0.00,WUHU216HW,2013-06-20 09:21:00,
2013-06-20 04:26:00,57.1,47.0,29.63,SSW,203,0.4,0.7,69,0.00,,,0.00,WUHU216HW,2013-06-20 09:26:00,
2013-06-20 04:31:00,57.1,47.0,29.63,SSW,203,0.0,0.7,69,0.00,,,0.00,WUHU216HW,2013-06-20 09:31:00,
2013-06-20 04:36:00,56.9,46.8,29.63,SSW,203,0.2,0.4,69,0.00,,,0.00,WUHU216HW,2013-06-20 09:36:00,
2013-06-20 04:41:00,56.7,46.6,29.63,SSW,203,0.0,0.2,69,0.00,,,0.00,WUHU216HW,2013-06-20 09:41:00,
2013-06-20 04:46:00,56.7,46.6,29.63,SSW,203,0.7,0.7,69,0.00,,,0.00,WUHU216HW,2013-06-20 09:46:00,
2013-06-20 04:51:00,56.9,46.8,29.64,SSW,203,0.4,0.7,69,0.00,,,0.00,WUHU216HW,2013-06-20 09:51:00,
2013-06-20 04:56:00,56.9,46.8,29.63,SSW,203,0.7,0.7,69,0.00,,,0.00,WUHU216HW,2013-06-20 09:56:00,
2013-06-20 05:01:00,56.9,46.8,29.64,SSW,203,1.1,1.1,69,0.00,,,0.00,WUHU216HW,2013-06-20 10:01:00,
2013-06-20 05:06:00,56.9,47.5,29.64,SSW,203,1.6,1.6,71,0.00,,,0.00,WUHU216HW,2013-06-20 10:06:00,
2013-06-20 05:10:00,56.9,47.5,29.64,SSW,203,0.9,1.6,71,0.00,,,0.00,WUHU216HW,2013-06-20 10:10:00,
2013-06-20 05:15:00,57.1,47.7,29.64,SSW,203,0.4,1.6,71,0.00,,,0.00,WUHU216HW,2013-06-20 10:15:00,
2013-06-20 05:20:00,57.1,47.3,29.65,SSW,203,0.7,0.9,70,0.00,,,0.00,WUHU216HW,2013-06-20 10:20:00,
2013-06-20 05:25:00,57.2,47.5,29.65,SSW,203,1.1,1.1,70,0.00,,,0.00,WUHU216HW,2013-06-20 10:25:00,
2013-06-20 05:30:00,57.2,47.5,29.64,SSW,203,1.1,1.1,70,0.00,,,0.00,WUHU216HW,2013-06-20 10:30:00,
2013-06-20 05:35:00,57.4,47.7,29.65,SSW,203,0.4,1.1,70,0.00,,,0.00,WUHU216HW,2013-06-20 10:35:00,
2013-06-20 05:40:00,57.6,47.5,29.65,SSW,203,0.9,1.1,69,0.00,,,0.00,WUHU216HW,2013-06-20 10:40:00,
2013-06-20 05:45:00,57.6,47.5,29.64,SSW,203,1.8,1.8,69,0.00,,,0.00,WUHU216HW,2013-06-20 10:45:00,
2013-06-20 05:50:00,57.8,47.7,29.64,SSW,203,1.1,1.8,69,0.00,,,0.00,WUHU216HW,2013-06-20 10:50:00,
2013-06-20 05:55:00,58.0,47.9,29.64,SSW,203,1.3,1.8,69,0.00,,,0.00,WUHU216HW,2013-06-20 10:55:00,
2013-06-20 06:00:00,58.1,47.6,29.64,SSW,203,1.1,1.3,68,0.00,,,0.00,WUHU216HW,2013-06-20 11:00:00,
2013-06-20 06:05:00,58.3,47.8,29.65,SSW,203,1.8,1.8,68,0.00,,,0.00,WUHU216HW,2013-06-20 11:05:00,
2013-06-20 06:10:00,58.5,48.0,29.65,SSW,203,1.1,1.8,68,0.00,,,0.00,WUHU216HW,2013-06-20 11:10:00,
2013-06-20 06:15:00,58.9,47.9,29.65,SSW,203,2.2,2.2,67,0.00,,,0.00,WUHU216HW,2013-06-20 11:15:00,
2013-06-20 06:20:00,59.0,48.1,29.65,SSW,203,1.8,2.2,67,0.00,,,0.00,WUHU216HW,2013-06-20 11:20:00,
2013-06-20 06:25:00,59.4,48.1,29.65,SSW,203,2.2,2.7,66,0.00,,,0.00,WUHU216HW,2013-06-20 11:25:00,
2013-06-20 06:30:00,59.6,47.8,29.65,SSW,203,3.4,3.4,65,0.00,,,0.00,WUHU216HW,2013-06-20 11:30:00,
2013-06-20 06:35:00,59.8,48.0,29.65,SSW,203,4.3,4.3,65,0.00,,,0.00,WUHU216HW,2013-06-20 11:35:00,
2013-06-20 06:40:00,59.9,48.2,29.65,SSW,203,2.5,4.3,65,0.00,,,0.00,WUHU216HW,2013-06-20 11:40:00,
2013-06-20 06:45:00,60.5,47.9,29.65,SSW,203,4.3,4.3,63,0.00,,,0.00,WUHU216HW,2013-06-20 11:45:00,
2013-06-20 06:50:00,60.7,48.1,29.65,SSW,203,2.7,4.3,63,0.00,,,0.00,WUHU216HW,2013-06-20 11:50:00,
2013-06-20 06:55:00,61.0,47.5,29.65,South,180,5.1,5.1,61,0.00,,,0.00,WUHU216HW,2013-06-20 11:55:00,
2013-06-20 07:00:00,61.4,47.4,29.65,SSW,203,3.1,5.1,60,0.00,,,0.00,WUHU216HW,2013-06-20 12:00:00,
2013-06-20 07:05:00,61.9,47.4,29.65,SSW,203,4.5,5.1,59,0.00,,,0.00,WUHU216HW,2013-06-20 12:05:00,
2013-06-20 07:10:00,63.0,47.4,29.65,SSW,203,4.9,4.9,57,0.00,,,0.00,WUHU216HW,2013-06-20 12:10:00,
2013-06-20 07:15:00,63.4,47.4,29.65,SSW,203,3.4,4.9,56,0.00,,,0.00,WUHU216HW,2013-06-20 12:15:00,
2013-06-20 07:20:00,63.7,48.2,29.65,SW,225,4.5,4.9,57,0.00,,,0.00,WUHU216HW,2013-06-20 12:20:00,
2013-06-20 07:25:00,63.9,46.4,29.65,South,180,4.9,6.3,53,0.00,,,0.00,WUHU216HW,2013-06-20 12:25:00,
2013-06-20 07:30:00,64.1,47.0,29.65,South,180,5.4,6.3,54,0.00,,,0.00,WUHU216HW,2013-06-20 12:30:00,
2013-06-20 07:35:00,64.6,47.5,29.65,SSW,203,2.5,5.4,54,0.00,,,0.00,WUHU216HW,2013-06-20 12:35:00,
2013-06-20 07:40:00,65.2,48.1,29.65,SSW,203,2.5,5.4,54,0.00,,,0.00,WUHU216HW,2013-06-20 12:40:00,
2013-06-20 07:45:00,65.3,48.3,29.65,SSW,203,3.4,3.4,54,0.00,,,0.00,WUHU216HW,2013-06-20 12:45:00,
2013-06-20 07:50:00,65.3,48.3,29.65,SSW,203,4.5,4.5,54,0.00,,,0.00,WUHU216HW,2013-06-20 12:50:00,
2013-06-20 14:30:00,83.5,59.2,29.61,SSW,203,6.0,6.0,44,0.00,,,0.00,WUHU216HW,2013-06-20 19:30:00,
2013-06-20 14:35:00,83.5,59.2,29.61,SSW,203,6.0,6.0,44,0.00,,,0.00,WUHU216HW,2013-06-20 19:35:00,
2013-06-20 15:00:00,83.5,58.7,29.61,SSW,203,4.3,4.3,43,0.00,,,0.01,WUHU216HW,2013-06-20 20:00:00,
2013-06-20 15:05:00,83.5,58.7,29.61,SSW,203,4.3,4.3,43,0.00,,,0.01,WUHU216HW,2013-06-20 20:05:00,
2013-06-20 15:30:00,83.7,58.1,29.61,SW,225,4.7,4.7,42,0.00,,,0.01,WUHU216HW,2013-06-20 20:30:00,
2013-06-20 15:35:00,83.7,58.1,29.61,SW,225,4.7,4.7,42,0.00,,,0.01,WUHU216HW,2013-06-20 20:35:00,
2013-06-20 16:00:00,83.9,58.3,29.60,SSW,203,5.6,5.6,42,0.00,,,0.01,WUHU216HW,2013-06-20 21:00:00,
2013-06-20 16:05:00,83.9,58.3,29.60,South,180,8.7,8.7,42,0.00,,,0.01,WUHU216HW,2013-06-20 21:05:00,
2013-06-20 16:10:00,84.1,57.9,29.60,SSW,203,4.9,8.7,41,0.00,,,0.01,WUHU216HW,2013-06-20 21:10:00,
2013-06-20 16:15:00,84.1,58.5,29.60,SW,225,6.9,8.7,42,0.00,,,0.01,WUHU216HW,2013-06-20 21:15:00,
2013-06-20 16:20:00,83.9,58.3,29.59,SW,225,5.1,6.9,42,0.00,,,0.01,WUHU216HW,2013-06-20 21:20:00,
2013-06-20 16:25:00,83.9,57.1,29.60,SSW,203,5.8,6.9,40,0.00,,,0.01,WUHU216HW,2013-06-20 21:25:00,
2013-06-20 16:30:00,83.9,57.1,29.60,SSW,203,5.6,5.8,40,0.00,,,0.01,WUHU216HW,2013-06-20 21:30:00,
2013-06-20 16:35:00,83.9,57.7,29.60,SSW,203,2.9,5.8,41,0.00,,,0.01,WUHU216HW,2013-06-20 21:35:00,
2013-06-20 16:40:00,83.9,58.3,29.59,SW,225,3.1,5.6,42,0.00,,,0.01,WUHU216HW,2013-06-20 21:40:00,
2013-06-20 16:45:00,83.9,58.3,29.58,SE,135,3.4,3.4,42,0.00,,,0.01,WUHU216HW,2013-06-20 21:45:00,
2013-06-20 16:50:00,83.7,58.1,29.58,SW,225,6.7,6.7,42,0.00,,,0.01,WUHU216HW,2013-06-20 21:50:00,
2013-06-20 16:55:00,83.9,58.3,29.58,SSW,203,4.0,6.7,42,0.00,,,0.01,WUHU216HW,2013-06-20 21:55:00,
2013-06-20 17:00:00,83.9,58.3,29.58,SSW,203,11.2,11.2,42,0.00,,,0.01,WUHU216HW,2013-06-20 22:00:00,
2013-06-20 17:05:00,83.7,57.6,29.58,SSW,203,5.4,11.2,41,0.00,,,0.01,WUHU216HW,2013-06-20 22:05:00,
2013-06-20 17:10:00,83.7,57.6,29.58,SSW,203,3.4,11.2,41,0.00,,,0.01,WUHU216HW,2013-06-20 22:10:00,
2013-06-20 17:15:00,83.7,57.6,29.58,SSW,203,7.8,7.8,41,0.00,,,0.01,WUHU216HW,2013-06-20 22:15:00,
2013-06-20 17:20:00,83.7,57.0,29.57,SW,225,4.7,7.8,40,0.00,,,0.01,WUHU216HW,2013-06-20 22:20:00,
2013-06-20 17:25:00,83.7,57.6,29.57,South,180,6.3,7.8,41,0.00,,,0.01,WUHU216HW,2013-06-20 22:25:00,
2013-06-20 17:30:00,83.7,57.6,29.57,South,180,7.6,7.6,41,0.00,,,0.01,WUHU216HW,2013-06-20 22:30:00,
2013-06-20 17:35:00,83.7,57.6,29.57,SSW,203,4.7,7.6,41,0.00,,,0.01,WUHU216HW,2013-06-20 22:35:00,
2013-06-20 17:40:00,83.7,57.6,29.57,SSW,203,5.6,7.6,41,0.00,,,0.01,WUHU216HW,2013-06-20 22:40:00,
2013-06-20 17:45:00,83.7,57.0,29.57,SSW,203,7.6,7.6,40,0.00,,,0.01,WUHU216HW,2013-06-20 22:45:00,
2013-06-20 17:50:00,83.7,57.0,29.57,SSW,203,3.4,7.6,40,0.00,,,0.01,WUHU216HW,2013-06-20 22:50:00,
2013-06-20 17:55:00,84.1,57.9,29.57,SSW,203,7.4,8.9,41,0.00,,,0.01,WUHU216HW,2013-06-20 22:55:00,
2013-06-20 18:00:00,84.1,57.2,29.57,SSW,203,5.6,8.9,40,0.00,,,0.01,WUHU216HW,2013-06-20 23:00:00,
2013-06-20 18:05:00,83.9,57.7,29.57,SSE,158,5.4,7.6,41,0.00,,,0.01,WUHU216HW,2013-06-20 23:05:00,
2013-06-20 18:10:00,84.2,57.4,29.57,South,180,6.5,7.2,40,0.00,,,0.01,WUHU216HW,2013-06-20 23:10:00,
2013-06-20 18:15:00,84.1,57.2,29.57,SSW,203,4.9,7.2,40,0.00,,,0.01,WUHU216HW,2013-06-20 23:15:00,
2013-06-20 18:20:00,83.5,56.8,29.57,SSW,203,5.4,7.2,40,0.00,,,0.01,WUHU216HW,2013-06-20 23:20:00,
2013-06-20 18:25:00,83.3,57.3,29.57,SW,225,4.0,7.2,41,0.00,,,0.01,WUHU216HW,2013-06-20 23:25:00,
2013-06-20 18:30:00,83.0,56.9,29.57,SSW,203,5.1,5.1,41,0.00,,,0.01,WUHU216HW,2013-06-20 23:30:00,
2013-06-20 18:35:00,82.8,56.7,29.57,South,180,3.8,5.1,41,0.00,,,0.01,WUHU216HW,2013-06-20 23:35:00,
2013-06-20 18:40:00,82.4,57.1,29.57,SSE,158,3.1,5.1,42,0.00,,,0.01,WUHU216HW,2013-06-20 23:40:00,
2013-06-20 18:45:00,82.4,57.1,29.57,SSW,203,4.5,5.1,42,0.00,,,0.01,WUHU216HW,2013-06-20 23:45:00,
2013-06-20 18:50:00,82.3,56.9,29.57,South,180,3.1,4.5,42,0.00,,,0.01,WUHU216HW,2013-06-20 23:50:00,
2013-06-20 18:55:00,82.1,56.7,29.57,South,180,5.4,5.4,42,0.00,,,0.01,WUHU216HW,2013-06-20 23:55:00,
2013-06-20 19:00:00,81.9,56.5,29.57,South,180,5.1,5.4,42,0.00,,,0.01,WUHU216HW,2013-06-21 00:00:00,
2013-06-20 19:05:00,81.7,57.0,29.57,SW,225,2.9,5.4,43,0.00,,,0.01,WUHU216HW,2013-06-21 00:05:00,
2013-06-20 19:10:00,81.5,59.3,29.58,SE,135,5.4,5.4,47,0.00,,,0.01,WUHU216HW,2013-06-21 00:10:00,
2013-06-20 19:15:00,81.2,59.6,29.58,SW,225,6.3,6.3,48,0.00,,,0.01,WUHU216HW,2013-06-21 00:15:00,
2013-06-20 19:20:00,80.8,59.9,29.58,SSE,158,4.5,6.3,49,0.00,,,0.01,WUHU216HW,2013-06-21 00:20:00,
2013-06-20 19:25:00,80.5,60.1,29.57,SE,135,6.3,6.3,50,0.00,,,0.01,WUHU216HW,2013-06-21 00:25:00,
2013-06-20 19:30:00,79.9,60.2,29.58,SE,135,3.8,6.3,51,0.00,,,0.01,WUHU216HW,2013-06-21 00:30:00,
2013-06-20 19:35:00,79.6,60.4,29.57,SSE,158,3.4,6.3,52,0.00,,,0.01,WUHU216HW,2013-06-21 00:35:00,
2013-06-20 19:40:00,79.4,60.2,29.58,SE,135,4.0,4.0,52,0.00,,,0.01,WUHU216HW,2013-06-21 00:40:00,
2013-06-20 19:45:00,78.8,60.2,29.58,SE,135,3.4,4.0,53,0.00,,,0.01,WUHU216HW,2013-06-21 00:45:00,
2013-06-20 19:50:00,78.7,60.6,29.58,SE,135,4.3,4.3,54,0.00,,,0.01,WUHU216HW,2013-06-21 00:50:00,
2013-06-20 19:55:00,78.5,60.4,29.58,SE,135,4.0,4.3,54,0.00,,,0.01,WUHU216HW,2013-06-21 00:55:00,
2013-06-20 20:00:00,78.1,60.6,29.58,SE,135,4.3,5.4,55,0.00,,,0.01,WUHU216HW,2013-06-21 01:00:00,
2013-06-20 20:05:00,77.6,60.1,29.58,SE,135,3.4,5.4,55,0.00,,,0.01,WUHU216HW,2013-06-21 01:05:00,
2013-06-20 20:10:00,77.4,60.0,29.58,SE,135,3.4,4.3,55,0.00,,,0.01,WUHU216HW,2013-06-21 01:10:00,
2013-06-20 20:15:00,77.0,59.6,29.58,SE,135,3.6,3.6,55,0.00,,,0.01,WUHU216HW,2013-06-21 01:15:00,
2013-06-20 20:20:00,76.7,59.2,29.58,SE,135,3.1,3.6,55,0.00,,,0.01,WUHU216HW,2013-06-21 01:20:00,
2013-06-20 20:25:00,76.5,59.1,29.58,SE,135,3.1,3.6,55,0.00,,,0.01,WUHU216HW,2013-06-21 01:25:00,
2013-06-20 20:30:00,76.0,58.6,29.58,ESE,113,4.0,4.3,55,0.00,,,0.01,WUHU216HW,2013-06-21 01:30:00,
2013-06-20 20:35:00,75.8,59.0,29.58,SE,135,3.8,4.3,56,0.00,,,0.01,WUHU216HW,2013-06-21 01:35:00,
2013-06-20 20:40:00,75.6,58.8,29.58,South,180,5.4,5.4,56,0.00,,,0.01,WUHU216HW,2013-06-21 01:40:00,
2013-06-20 20:45:00,75.4,58.6,29.58,SE,135,3.1,5.4,56,0.00,,,0.01,WUHU216HW,2013-06-21 01:45:00,
2013-06-20 20:50:00,75.1,58.3,29.58,SE,135,4.7,5.4,56,0.00,,,0.01,WUHU216HW,2013-06-21 01:50:00,
2013-06-20 20:55:00,74.7,58.0,29.59,SSE,158,2.9,4.7,56,0.00,,,0.01,WUHU216HW,2013-06-21 01:55:00,
2013-06-20 21:00:00,74.5,57.8,29.59,SE,135,3.6,4.7,56,0.00,,,0.01,WUHU216HW,2013-06-21 02:00:00,
2013-06-20 21:05:00,74.2,57.9,29.59,SE,135,4.7,4.7,57,0.00,,,0.01,WUHU216HW,2013-06-21 02:05:00,
2013-06-20 21:10:00,74.0,57.7,29.59,ESE,113,3.4,4.7,57,0.00,,,0.01,WUHU216HW,2013-06-21 02:10:00,
2013-06-20 21:15:00,73.8,57.5,29.59,SE,135,3.6,4.7,57,0.00,,,0.01,WUHU216HW,2013-06-21 02:15:00,
2013-06-20 21:20:00,73.4,57.7,29.60,SE,135,2.7,3.6,58,0.00,,,0.01,WUHU216HW,2013-06-21 02:20:00,
2013-06-20 21:25:00,73.1,57.3,29.60,SE,135,2.7,3.6,58,0.00,,,0.01,WUHU216HW,2013-06-21 02:25:00,
2013-06-20 21:30:00,73.1,57.3,29.60,SE,135,3.4,3.4,58,0.00,,,0.01,WUHU216HW,2013-06-21 02:30:00,
2013-06-20 21:35:00,72.9,57.2,29.60,SE,135,3.1,3.4,58,0.00,,,0.01,WUHU216HW,2013-06-21 02:35:00,
2013-06-20 21:40:00,72.7,57.1,29.60,SE,135,3.1,3.6,58,0.00,,,0.01,WUHU216HW,2013-06-21 02:40:00,
2013-06-20 21:45:00,72.4,56.7,29.60,SE,135,3.4,3.6,58,0.00,,,0.01,WUHU216HW,2013-06-21 02:45:00,
2013-06-20 21:50:00,72.2,56.5,29.60,SSE,158,2.5,3.4,58,0.00,,,0.01,WUHU216HW,2013-06-21 02:50:00,
2013-06-20 21:55:00,72.2,56.5,29.60,SE,135,2.2,3.4,58,0.00,,,0.01,WUHU216HW,2013-06-21 02:55:00,
2013-06-20 22:00:00,72.0,56.9,29.60,SE,135,3.1,3.4,59,0.00,,,0.01,WUHU216HW,2013-06-21 03:00:00,
2013-06-20 22:05:00,71.8,56.7,29.60,SE,135,3.1,3.4,59,0.00,,,0.01,WUHU216HW,2013-06-21 03:05:00,
2013-06-20 22:10:00,71.6,56.5,29.61,SE,135,2.7,3.1,59,0.00,,,0.01,WUHU216HW,2013-06-21 03:10:00,
2013-06-20 22:15:00,71.5,56.4,29.61,SE,135,2.7,3.1,59,0.00,,,0.01,WUHU216HW,2013-06-21 03:15:00,
2013-06-20 22:20:00,71.3,56.3,29.61,SE,135,2.5,2.7,59,0.00,,,0.01,WUHU216HW,2013-06-21 03:20:00,
2013-06-20 22:25:00,70.9,55.9,29.61,SE,135,2.9,3.4,59,0.00,,,0.01,WUHU216HW,2013-06-21 03:25:00,
2013-06-20 22:30:00,70.9,55.9,29.60,SE,135,3.4,3.4,59,0.00,,,0.01,WUHU216HW,2013-06-21 03:30:00,
2013-06-20 22:35:00,70.7,55.7,29.60,SE,135,2.5,3.4,59,0.00,,,0.01,WUHU216HW,2013-06-21 03:35:00,
2013-06-20 22:40:00,70.4,55.5,29.60,South,180,2.7,3.4,59,0.00,,,0.01,WUHU216HW,2013-06-21 03:40:00,
2013-06-20 22:45:00,70.4,55.5,29.60,SE,135,3.4,3.4,59,0.00,,,0.01,WUHU216HW,2013-06-21 03:45:00,
2013-06-20 22:50:00,70.2,55.3,29.60,SE,135,3.1,3.4,59,0.00,,,0.01,WUHU216HW,2013-06-21 03:50:00,
2013-06-20 22:55:00,70.2,55.3,29.60,SSE,158,3.6,3.6,59,0.00,,,0.01,WUHU216HW,2013-06-21 03:55:00,
2013-06-20 23:00:00,70.0,55.6,29.60,SE,135,3.1,3.6,60,0.00,,,0.01,WUHU216HW,2013-06-21 04:00:00,
2013-06-20 23:01:00,70.0,55.6,29.60,SE,135,3.1,3.6,60,0.00,,,0.01,WUHU216HW,2013-06-21 04:01:00,
2013-06-20 23:06:00,70.0,55.6,29.60,SSE,158,3.6,3.6,60,0.00,,,0.01,WUHU216HW,2013-06-21 04:06:00,
2013-06-20 23:11:00,70.0,55.6,29.61,SE,135,3.4,3.6,60,0.00,,,0.01,WUHU216HW,2013-06-21 04:11:00,
2013-06-20 23:16:00,70.0,55.6,29.61,SE,135,2.9,3.6,60,0.00,,,0.01,WUHU216HW,2013-06-21 04:16:00,
2013-06-20 23:21:00,70.0,55.6,29.61,SW,225,2.9,3.4,60,0.00,,,0.01,WUHU216HW,2013-06-21 04:21:00,
2013-06-20 23:26:00,69.8,55.4,29.61,South,180,2.9,2.9,60,0.00,,,0.01,WUHU216HW,2013-06-21 04:26:00,
2013-06-20 23:31:00,69.7,55.3,29.61,SE,135,2.7,3.1,60,0.00,,,0.01,WUHU216HW,2013-06-21 04:31:00,
2013-06-20 23:36:00,69.5,55.5,29.61,SSE,158,2.2,3.1,61,0.00,,,0.01,WUHU216HW,2013-06-21 04:36:00,
2013-06-20 23:41:00,69.5,55.5,29.61,SSW,203,3.8,3.8,61,0.00,,,0.01,WUHU216HW,2013-06-21 04:41:00,
2013-06-20 23:46:00,69.5,55.9,29.61,SE,135,2.9,3.8,62,0.00,,,0.01,WUHU216HW,2013-06-21 04:46:00,
2013-06-20 23:51:00,69.3,55.7,29.61,ESE,113,2.7,3.8,62,0.00,,,0.01,WUHU216HW,2013-06-21 04:51:00,
2013-06-20 23:56:00,69.3,55.7,29.61,SSE,158,3.4,3.4,62,0.00,,,0.01,WUHU216HW,2013-06-21 04:56:00,